K1642  T09  0.0   0.0     K171S  T09  0.1+  0.0     K1734  T09  0.0   0.2+ 
K1644  T09  0.0   0.0     K171S  T09  0.0   0.0     K1734  T09  0.1+  0.3- 
K1644  T09  0.0   0.0     K1734  T09  0.3-  0.1+    K1734  T09  0.1+  0.1+ 
K16CP  T09  0.1+  0.0     K1734  T09  0.0   0.0     K1736  T09  0.0   0.1- 
K16CP  T09  0.1-  0.0     K1734  T09  0.0   0.1+    
2017 BZ244                                                                      
Epoch 2024 Oct. 17.0 TT = JDT 2460600.5                 Alexandersen            
M 122.26197              (2000.0)            P               Q                  
n   0.00348742     Peri.  158.04046     +0.93198962     -0.32098253             
a  43.0658363      Node   221.89755     +0.28360470     +0.93505795             
e   0.1329483      Incl.   14.60787     +0.22575148     +0.15045549             
P 283              H    7.91          G   0.15           U   6                  
Residuals in seconds of arc
K153M  T09  0.0   0.0     K16BS  T09  0.0   0.0     K171S  T09  0.3+  0.1+ 
K1642  T09  0.0   0.1+    K16BT  T09  0.2-  0.2-    K1721  T09  0.2-  0.0  
K1642  T09  0.1-  0.0     K171L  T09  0.1+  0.3-    K1721  T09  0.2+  0.3+ 
K1644  T09  0.1+  0.1-    K171L  T09  0.2-  0.1-    K1721  T09  0.2-  0.1+ 
K1644  T09  0.0   0.0     K171L  T09  0.2-  0.1+    K1721  T09  0.2+  0.0  
K16BS  T09  0.1+  0.2-    K171L  T09  0.1-  0.0     
K16BS  T09  0.1+  0.2+    K171S  T09  0.1+  0.0     
2017 BA245                                                                      
Epoch 2024 Oct. 17.0 TT = JDT 2460600.5                 Alexandersen            
M 323.44910              (2000.0)            P               Q                  
n   0.00261227     Peri.  324.44624     -0.64211411     +0.73795234             
a  52.2145011      Node   264.64593     -0.64625724     -0.66676825             
e   0.3102726      Incl.   12.03759     -0.41236034     -0.10414627             
P 377              H    7.95          G   0.15           U   6                  
Residuals in seconds of arc
K171Q  T09  0.1+  0.2+    K1722  T09  0.0   0.0     K174S  T09  0.0   0.2- 
K171Q  T09  0.0   0.3-    K1722  T09  0.2-  0.0     K181H  T09  0.2-  0.1+ 
K171S  T09  0.0   0.0     K1722  T09  0.1-  0.2+    K181H  T09  0.1+  0.1- 
K171S  T09  0.1-  0.1-    K1722  T09  0.2+  0.2+    K181H  T09  0.2+  0.1+ 
K171S  T09  0.2+  0.1+    K173T  T09  0.0   0.1-    K18CD  T09  0.0   0.0  
K171S  T09  0.1+  0.1+    K173T  T09  0.1-  0.2-    K1924  T09  0.0   0.0  
2017 EU57                                                                       
Epoch 2024 Oct. 17.0 TT = JDT 2460600.5                 Alexandersen            
M 352.47014              (2000.0)            P               Q                  
n   0.00239771     Peri.  335.12245     -0.99509383     -0.02812166             
a  55.2847201      Node   203.85268     +0.04581325     -0.98074331             
e   0.3482674      Incl.   13.56597     -0.08768926     -0.19326595             
P 411              H    8.99          G   0.15           U   6                  
Residuals in seconds of arc
K171Q  T09  0.1+  0.0     K1722  T09  0.0   0.1+    K181H  T09  0.0   0.0  
K171Q  T09  0.2+  0.3-    K1722  T09  0.1+  0.0     K181H  T09  0.1-  0.1+ 
K171Q  T09  0.2+  0.1-    K1736  T09  0.1-  0.1+    K1959  T09  0.1+  0.0  
K171Q  T09  0.2-  0.0     K1736  T09  0.1+  0.0     K1959  T09  0.0   0.1- 
K171Q  T09  0.0   0.1+    K1736  T09  0.0   0.1+    
K171Q  T09  0.2-  0.1-    K1736  T09  0.1-  0.1-    
M. P. C. Staff               (C) Copyright 2024 MPC           M.P.E.C. 2024-O17
    
    
More information about the Iaude
mailing list